When you browse on this site, cookies collect data to enhance your experience and personalize the content and advertising you see.
Visit our Privacy Policy to learn more. By continuing to use the site, you agree to this use of cookies and data.
  • In Österreich
  • Länderverzeichnis
  • Für 7 Tage
  • Wassertemperatur
  • Wetterkarte
  • News
  • Widgets
  • user-avatar
    Anmelden

    Stündliche Wetter Szolnok

    Heute, 27 Januar, Montag

    Zeit Temperatur Niederschläge Wind Luftdruck Luftfeuchtigkeit
    00:00 +1°C° 0 mm 2 m/S 757 mmHg 74%
    01:00 +2°C° 0 mm 1 m/S 757 mmHg 72%
    02:00 +2°C° 0 mm 1 m/S 757 mmHg 71%
    03:00 +1°C° 0 mm 2 m/S 756 mmHg 70%
    04:00 +1°C° 0 mm 2 m/S 756 mmHg 69%
    05:00 +2°C° 0 mm 1 m/S 756 mmHg 70%
    06:00 +2°C° 0 mm 1 m/S 756 mmHg 72%
    07:00 +2°C° 0 mm 1 m/S 756 mmHg 73%
    08:00 +3°C° 0 mm 1 m/S 756 mmHg 72%
    09:00 +4°C° 0 mm 1 m/S 756 mmHg 71%
    10:00 +4°C° 0 mm 1 m/S 756 mmHg 70%
    11:00 +5°C° 0 mm 1 m/S 756 mmHg 70%
    12:00 +5°C° 0 mm 1 m/S 756 mmHg 69%
    13:00 +6°C° 0 mm 1 m/S 755 mmHg 69%
    14:00 +6°C° 0 mm 1 m/S 755 mmHg 71%
    15:00 +5°C° 0 mm 1 m/S 755 mmHg 73%
    16:00 +5°C° 0 mm 1 m/S 755 mmHg 76%
    17:00 +4°C° 0 mm 1 m/S 755 mmHg 78%
    18:00 +4°C° 0 mm 1 m/S 755 mmHg 81%
    19:00 +2°C° 0 mm 2 m/S 755 mmHg 84%
    20:00 +2°C° 0 mm 2 m/S 755 mmHg 84%
    21:00 +1°C° 0 mm 2 m/S 755 mmHg 85%
    22:00 +1°C° 0 mm 2 m/S 754 mmHg 86%
    23:00 +1°C° 0 mm 2 m/S 754 mmHg 87%

    Morgen, 28 Januar, Dienstag

    Zeit Temperatur Niederschläge Wind Luftdruck Luftfeuchtigkeit
    00:00 +1°C° 0 mm 2 m/S 753 mmHg 88%
    01:00 +2°C° 0 mm 1 m/S 753 mmHg 89%
    02:00 +1°C° 0 mm 2 m/S 753 mmHg 90%
    03:00 +1°C° 0 mm 2 m/S 752 mmHg 92%
    04:00 0°C° 0 mm 3 m/S 752 mmHg 93%
    05:00 0°C° 0 mm 3 m/S 751 mmHg 93%
    06:00 -1°C° 0 mm 4 m/S 751 mmHg 93%
    07:00 -1°C° 0 mm 4 m/S 750 mmHg 94%
    08:00 0°C° 0.2 mm 5 m/S 750 mmHg 92%
    09:00 +1°C° 0.2 mm 6 m/S 749 mmHg 91%
    10:00 +2°C° 0.2 mm 7 m/S 749 mmHg 90%
    11:00 +2°C° 1 mm 7 m/S 748 mmHg 90%
    12:00 +3°C° 1 mm 7 m/S 747 mmHg 91%
    13:00 +2°C° 1 mm 8 m/S 746 mmHg 92%
    14:00 +4°C° 1.3 mm 7 m/S 746 mmHg 91%
    15:00 +4°C° 1.3 mm 7 m/S 745 mmHg 90%
    16:00 +4°C° 1.3 mm 7 m/S 744 mmHg 89%
    17:00 +4°C° 2.4 mm 6 m/S 744 mmHg 91%
    18:00 +5°C° 2.4 mm 5 m/S 744 mmHg 92%
    19:00 +5°C° 2.4 mm 4 m/S 744 mmHg 93%
    20:00 +4°C° 1.7 mm 4 m/S 744 mmHg 92%
    21:00 +4°C° 1.7 mm 4 m/S 744 mmHg 91%
    22:00 +4°C° 1.7 mm 4 m/S 744 mmHg 90%
    23:00 +2°C° 0 mm 5 m/S 744 mmHg 84%

    übermorgen, 29 Januar, Mittwoch

    Zeit Temperatur Niederschläge Wind Luftdruck Luftfeuchtigkeit
    00:00 +2°C° 0 mm 6 m/S 745 mmHg 79%
    01:00 +2°C° 0 mm 6 m/S 745 mmHg 74%
    02:00 +1°C° 0 mm 6 m/S 746 mmHg 72%
    03:00 +1°C° 0 mm 6 m/S 746 mmHg 70%
    04:00 +1°C° 0 mm 5 m/S 747 mmHg 69%
    05:00 0°C° 0 mm 5 m/S 747 mmHg 71%
    06:00 0°C° 0 mm 4 m/S 747 mmHg 72%
    07:00 0°C° 0 mm 3 m/S 748 mmHg 74%
    08:00 0°C° 0 mm 4 m/S 748 mmHg 75%
    09:00 +1°C° 0 mm 4 m/S 748 mmHg 76%
    10:00 +2°C° 0 mm 5 m/S 748 mmHg 77%
    11:00 +2°C° 0 mm 5 m/S 748 mmHg 73%
    12:00 +3°C° 0 mm 5 m/S 748 mmHg 70%
    13:00 +3°C° 0 mm 5 m/S 748 mmHg 67%
    14:00 +3°C° 0 mm 5 m/S 748 mmHg 68%
    15:00 +4°C° 0 mm 4 m/S 748 mmHg 69%
    16:00 +4°C° 0 mm 4 m/S 749 mmHg 71%
    17:00 +3°C° 0 mm 4 m/S 749 mmHg 73%
    18:00 +2°C° 0 mm 3 m/S 749 mmHg 75%
    19:00 +1°C° 0 mm 3 m/S 750 mmHg 76%
    20:00 0°C° 0 mm 4 m/S 750 mmHg 76%
    21:00 0°C° 0 mm 4 m/S 750 mmHg 76%
    22:00 -1°C° 0 mm 4 m/S 751 mmHg 75%
    23:00 -1°C° 0 mm 4 m/S 751 mmHg 75%

    30 Januar, Donnerstag

    Zeit Temperatur Niederschläge Wind Luftdruck Luftfeuchtigkeit
    00:00 0°C° 0 mm 5 m/S 751 mmHg 74%
    01:00 -1°C° 0 mm 6 m/S 751 mmHg 73%
    02:00 -2°C° 0 mm 6 m/S 752 mmHg 74%
    03:00 -2°C° 0 mm 6 m/S 752 mmHg 75%
    04:00 -2°C° 0 mm 6 m/S 752 mmHg 76%
    05:00 -2°C° 0 mm 6 m/S 753 mmHg 76%
    06:00 -2°C° 0 mm 7 m/S 753 mmHg 76%
    07:00 -2°C° 0 mm 7 m/S 753 mmHg 76%
    08:00 -1°C° 0 mm 7 m/S 754 mmHg 72%
    09:00 0°C° 0 mm 8 m/S 755 mmHg 69%
    10:00 +1°C° 0 mm 8 m/S 755 mmHg 65%
    11:00 +1°C° 0 mm 8 m/S 755 mmHg 63%
    12:00 +2°C° 0 mm 8 m/S 755 mmHg 62%
    13:00 +2°C° 0 mm 8 m/S 755 mmHg 60%
    14:00 +3°C° 0 mm 7 m/S 755 mmHg 62%
    15:00 +2°C° 0 mm 6 m/S 756 mmHg 65%
    16:00 +2°C° 0 mm 6 m/S 756 mmHg 67%
    17:00 +1°C° 0 mm 5 m/S 756 mmHg 69%
    18:00 +1°C° 0 mm 5 m/S 756 mmHg 70%
    19:00 +1°C° 0 mm 4 m/S 756 mmHg 72%
    20:00 0°C° 0 mm 4 m/S 756 mmHg 73%
    21:00 +1°C° 0 mm 3 m/S 756 mmHg 74%
    22:00 +1°C° 0 mm 3 m/S 755 mmHg 74%
    23:00 +1°C° 0 mm 3 m/S 755 mmHg 74%

    31 Januar, Freitag

    Zeit Temperatur Niederschläge Wind Luftdruck Luftfeuchtigkeit
    00:00 +1°C° 0 mm 3 m/S 755 mmHg 74%
    01:00 0°C° 0 mm 4 m/S 754 mmHg 73%
    02:00 0°C° 0 mm 4 m/S 754 mmHg 73%
    03:00 +1°C° 0 mm 3 m/S 754 mmHg 74%
    04:00 0°C° 0 mm 3 m/S 753 mmHg 74%
    05:00 -1°C° 0 mm 4 m/S 753 mmHg 74%
    06:00 0°C° 0 mm 4 m/S 753 mmHg 75%
    07:00 0°C° 0 mm 4 m/S 752 mmHg 75%
    08:00 0°C° 0 mm 5 m/S 752 mmHg 73%
    09:00 +1°C° 0 mm 5 m/S 752 mmHg 71%
    10:00 +2°C° 0 mm 5 m/S 752 mmHg 69%
    11:00 +3°C° 0.2 mm 5 m/S 751 mmHg 72%
    12:00 +4°C° 0.2 mm 4 m/S 751 mmHg 74%
    13:00 +5°C° 0.2 mm 3 m/S 750 mmHg 77%
    14:00 +5°C° 0.3 mm 4 m/S 750 mmHg 79%
    15:00 +3°C° 0.3 mm 5 m/S 750 mmHg 81%
    16:00 +3°C° 0.3 mm 5 m/S 750 mmHg 82%
    17:00 +4°C° 0.2 mm 6 m/S 750 mmHg 81%
    18:00 +4°C° 0.2 mm 6 m/S 750 mmHg 79%
    19:00 +4°C° 0.2 mm 6 m/S 750 mmHg 78%
    20:00 +4°C° 0 mm 6 m/S 751 mmHg 80%
    21:00 +4°C° 0 mm 6 m/S 751 mmHg 82%
    22:00 +4°C° 0 mm 6 m/S 752 mmHg 84%
    23:00 +4°C° 0 mm 6 m/S 752 mmHg 84%

    1 Februar, Samstag

    Zeit Temperatur Niederschläge Wind Luftdruck Luftfeuchtigkeit
    00:00 +5°C° 0 mm 5 m/S 753 mmHg 85%
    01:00 +4°C° 0 mm 4 m/S 753 mmHg 85%
    02:00 +4°C° 0 mm 4 m/S 753 mmHg 86%
    03:00 +3°C° 0 mm 3 m/S 754 mmHg 86%
    04:00 +4°C° 0 mm 2 m/S 754 mmHg 87%
    05:00 +4°C° 0 mm 2 m/S 754 mmHg 88%
    06:00 +3°C° 0 mm 3 m/S 755 mmHg 89%
    07:00 +2°C° 0 mm 3 m/S 755 mmHg 90%
    08:00 +4°C° 0 mm 3 m/S 755 mmHg 86%
    09:00 +5°C° 0 mm 3 m/S 756 mmHg 83%
    10:00 +7°C° 0 mm 4 m/S 756 mmHg 79%
    11:00 +8°C° 0 mm 4 m/S 756 mmHg 77%
    12:00 +10°C° 0 mm 4 m/S 756 mmHg 75%
    13:00 +11°C° 0 mm 3 m/S 756 mmHg 73%
    14:00 +10°C° 0 mm 3 m/S 756 mmHg 74%
    15:00 +10°C° 0 mm 3 m/S 756 mmHg 75%
    16:00 +9°C° 0 mm 2 m/S 756 mmHg 76%
    17:00 +9°C° 0 mm 2 m/S 756 mmHg 78%
    18:00 +8°C° 0 mm 2 m/S 756 mmHg 79%
    19:00 +7°C° 0 mm 2 m/S 756 mmHg 81%
    20:00 +7°C° 0 mm 2 m/S 756 mmHg 83%
    21:00 +7°C° 0 mm 2 m/S 756 mmHg 85%
    22:00 +6°C° 0 mm 2 m/S 756 mmHg 86%
    23:00 +6°C° 0 mm 2 m/S 756 mmHg 88%
    Mehr zeigen